Regional Weather Roundup
Issued by NWS

Home | Current Version | Previous Version | Text Only | Print | Product List | Glossary On
Versions: 1 2 3 4 5 6 7 8 9 10 11 12 13 14 15 16 17 18 19 20 21 22 23 24 25 26 27 28 29 30 31 32 33 34 35 36 37 38 39 40 41 42 43 44 45 46 47 48 49 50
000
ASUS43 KFSD 070710
RWRSD

WEATHER ROUNDUP FOR SOUTH DAKOTA
NATIONAL WEATHER SERVICE SIOUX FALLS SD
200 AM CDT TUE JUL 07 2015

NOTE: "FAIR" INDICATES FEW OR NO CLOUDS BELOW 12,000 FEET WITH NO
SIGNIFICANT WEATHER AND/OR OBSTRUCTIONS TO VISIBILITY.


SDZ001>005-009-010-012>017-070800-
NORTHWEST AND NORTH CENTRAL SOUTH DAKOTA

CITY           SKY/WX    TMP DP  RH WIND       PRES   REMARKS
BUFFALO          N/A     55  50  83 E9        30.14S
FAITH            N/A     57  50  77 E7        30.19F
MOBRIDGE       CLEAR     56  54  93 E5        30.18S FOG
$$

SDZ012>016-024>037-041>051-057-063-072>074-070800-
SOUTHWEST AND SOUTH CENTRAL SOUTH DAKOTA

CITY           SKY/WX    TMP DP  RH WIND       PRES   REMARKS
RAPID CTY ARPT MOCLDY    59  57  93 E5        30.20S
PIERRE         CLEAR     55  53  93 NE6       30.17R FOG
CUSTER         MOCLDY    54  48  80 CALM      30.28F
ELLSWORTH AFB  MOCLDY    61  56  85 SE3       30.19F
PHILIP         MOCLDY    60  57  89 E3        30.17F
PINE RIDGE     CLOUDY    63  53  70 VRB5      30.22S
SPEARFISH      CLOUDY    57  55  94 CALM      30.21F
WINNER         FAIR      59  54  83 SE3       30.18S
$$

SDZ004>011-016>023-039-040-070800-
NORTHEAST SOUTH DAKOTA

CITY           SKY/WX    TMP DP  RH WIND       PRES   REMARKS
ABERDEEN       CLEAR     52  50  93 CALM      30.18R
WATERTOWN      CLEAR     50  48  93 NE3       30.17R
BROOKINGS      CLEAR     54  48  82 N6        30.17R
SISSETON         N/A     49  46  90 NW8       30.16S
$$

SDZ017-020-022-023-036>040-048>070-070800-
SOUTHEAST SOUTH DAKOTA

CITY           SKY/WX    TMP DP  RH WIND       PRES   REMARKS
SIOUX FALLS    CLEAR     54  50  86 N5        30.15R
HURON          CLEAR     56  53  90 CALM      30.16R
CHAMBERLAIN    CLEAR     59  56  89 CALM      30.17S FOG
MITCHELL       CLEAR     59  56  89 CALM      30.16S
YANKTON        CLEAR     55  52  88 N5        30.14R
$$

ABBREVIATIONS USED IN REMARKS
   TC - TEMPERATURE IN CELSIUS
  WCI - WIND CHILL INDEX
   HX - HEAT INDEX
  VSB - VISIBILITY



USA.gov is the U.S. government's official web portal to all federal, state and local government web resources and services.